Location: Kawakawa
(35.3830°S, 174.0670°E)
Time: 03:12:40
(UTC+13:00)

Explorer 7 - Pass Details

Date: 17 December 2019
Orbit: 485 x 679 km, 50.3° (Epoch: 25 January)

Event Time Altitude Azimuth Distance (km) Brightness Sun altitude
Rises 08:30:37 0° 223° (SW) 2,579 10.0 27.3°
Reaches altitude 10° 08:32:59 10° 212° (SSW) 1,697 9.2 27.7°
Maximum altitude 08:36:24 30° 149° (SSE) 917 8.8 28.4°
Drops below altitude 10° 08:39:53 10° 85° (E) 1,729 10.9 29.1°
Sets 08:42:18 0° 74° (ENE) 2,636 11.2 29.6°
